Terminal Aerodrome Forecast
Issued by NWS Jacksonville, FL

Home | Current Version | Previous Version | Text Only | Print | Product List | Glossary On
Versions: 1 2 3 4 5 6 7 8 9 10 11 12 13 14 15 16 17
509
FTUS42 KJAX 291903 AAB
TAFJAX
TAF AMD
KJAX 291903Z 2919/3018 07014G21KT P6SM VCTS SCT020 BKN035CB BKN050
      TEMPO 2919/2920 VRB15G30KT 2SM TSRA OVC020CB
     FM300000 05004KT P6SM VCSH SCT015 SCT030 BKN250
     FM301400 06014G21KT P6SM VCSH SCT020 BKN035=

USA.gov is the U.S. government's official web portal to all federal, state and local government web resources and services.